P/2016 A3 ( PanSTARRS )

Japanese version
Home page
Updated on June 25, 2018

---------------------------------------------------------------------

* Profile

Discovery Date January 4, 2016
Magnitude 20.5 mag
Discoverer Pan-STARRS 1 telescope (Haleakala)

* Pictures

* Orbital Elements

Epoch 2017 Mar. 28.0 TT = JDT 2457840.5
T 2017 Apr. 13.59540 TT                                 MPCW
q   4.7894980            (2000.0)            P               Q
n   0.04592675     Peri.  338.47192     -0.97085104     -0.23882537
a   7.7225178      Node   187.79442     +0.23588521     -0.93705053
e   0.3798010      Incl.    8.59397     +0.04250206     -0.25475235
P  21.46
From 129 observations 2016 Jan. 4-2018 May 19, mean residual 0".4.

* Magnitudes Graph

        m1 = 2.0 + 5 log d + 20.0 log r

---------------------------------------------------------------------

The orbital elements are published on M.P.E.C. 2018-K95.
The magnitudes graphs are made with Comet for Windows.

---------------------------------------------------------------------

Copyright(C) Seiichi Yoshida (comet@aerith.net). All rights reserved.